Time,TemperatureF,DewpointF,PressureIn,WindDirection,WindDirectionDegrees,WindSpeedMPH,WindSpeedGustMPH,Humidity,HourlyPrecipIn,Conditions,Clouds,dailyrainin,SoftwareType,DateUTC
2013-07-14 00:01:00,66.7,59.6,30.41,SSE,158,0.0,0.0,78,0.00,,---,0.19,VWS V14.01,2013-07-14 04:01:00,
2013-07-14 00:06:00,66.5,59.8,30.41,SSE,158,0.0,0.0,79,0.00,,---,0.00,VWS V14.01,2013-07-14 04:06:00,
2013-07-14 00:11:00,66.3,59.6,30.41,SSE,158,0.0,0.0,79,0.00,,---,0.00,VWS V14.01,2013-07-14 04:11:00,
2013-07-14 00:16:00,66.3,59.6,30.41,SSE,158,0.0,0.0,79,0.00,,---,0.00,VWS V14.01,2013-07-14 04:16:00,
2013-07-14 00:21:00,66.0,59.3,30.41,SSE,158,0.0,0.0,79,0.00,,---,0.00,VWS V14.01,2013-07-14 04:21:00,
2013-07-14 00:26:00,66.0,59.3,30.41,SSE,158,0.0,0.0,79,0.00,,---,0.00,VWS V14.01,2013-07-14 04:26:00,
2013-07-14 00:31:00,66.0,59.3,30.41,SSE,158,0.0,0.0,79,0.00,,---,0.00,VWS V14.01,2013-07-14 04:31:00,
2013-07-14 00:36:00,65.8,59.1,30.41,SSE,158,0.0,0.0,79,0.00,,---,0.00,VWS V14.01,2013-07-14 04:36:00,
2013-07-14 00:41:00,65.8,59.1,30.41,SSE,158,0.0,0.0,79,0.00,,---,0.00,VWS V14.01,2013-07-14 04:41:00,
2013-07-14 00:46:00,65.6,58.9,30.40,SSE,158,0.0,0.0,79,0.00,,---,0.00,VWS V14.01,2013-07-14 04:46:00,
2013-07-14 00:51:00,65.4,58.7,30.41,SSE,158,0.0,0.0,79,0.00,,---,0.00,VWS V14.01,2013-07-14 04:51:00,
2013-07-14 00:56:00,65.4,59.1,30.40,SSE,158,0.0,0.0,80,0.00,,---,0.00,VWS V14.01,2013-07-14 04:56:00,
2013-07-14 01:03:00,65.4,59.1,30.41,SSE,158,0.0,0.0,80,0.00,,---,0.00,VWS V14.01,2013-07-14 05:03:00,
2013-07-14 01:08:00,65.3,59.0,30.41,SSE,158,0.0,0.0,80,0.00,,---,0.00,VWS V14.01,2013-07-14 05:08:00,
2013-07-14 01:13:00,65.3,59.0,30.41,SSE,158,0.0,0.0,80,0.00,,---,0.00,VWS V14.01,2013-07-14 05:13:00,
2013-07-14 01:18:00,65.3,59.0,30.41,SSE,158,0.0,0.0,80,0.00,,---,0.00,VWS V14.01,2013-07-14 05:18:00,
2013-07-14 01:22:00,65.1,58.8,30.41,SSE,158,0.0,0.0,80,0.00,,---,0.19,VWS V14.01,2013-07-14 05:22:00,
2013-07-14 01:27:00,65.1,59.1,30.41,SSE,158,0.0,0.0,81,0.00,,---,0.19,VWS V14.01,2013-07-14 05:27:00,
2013-07-14 01:32:00,65.1,59.1,30.41,SSE,158,0.0,0.0,81,0.00,,---,0.00,VWS V14.01,2013-07-14 05:32:00,
2013-07-14 01:37:00,64.9,58.9,30.41,SSE,158,0.0,0.0,81,0.00,,---,0.00,VWS V14.01,2013-07-14 05:37:00,
2013-07-14 01:43:00,64.9,58.9,30.41,SSE,158,0.0,0.0,81,0.00,,---,0.00,VWS V14.01,2013-07-14 05:43:00,
2013-07-14 01:48:00,64.9,58.9,30.41,SSE,158,0.0,0.0,81,0.00,,---,0.00,VWS V14.01,2013-07-14 05:48:00,
2013-07-14 01:53:00,64.9,58.9,30.41,SSE,158,0.0,0.0,81,0.00,,---,0.00,VWS V14.01,2013-07-14 05:53:00,
2013-07-14 05:51:00,63.5,58.2,30.42,SSE,158,0.0,0.0,83,0.00,,---,0.00,VWS V14.01,2013-07-14 09:51:00,
2013-07-14 05:56:00,63.5,58.2,30.43,SSE,158,0.0,0.0,83,0.00,,---,0.00,VWS V14.01,2013-07-14 09:56:00,
2013-07-14 06:01:00,63.5,58.2,30.43,SSE,158,0.0,0.0,83,0.00,,---,0.00,VWS V14.01,2013-07-14 10:01:00,
2013-07-14 06:06:00,63.3,58.1,30.42,SSE,158,0.0,0.0,83,0.00,,---,0.00,VWS V14.01,2013-07-14 10:06:00,
2013-07-14 06:11:00,63.5,58.2,30.43,SSE,158,0.0,0.0,83,0.00,,---,0.00,VWS V14.01,2013-07-14 10:11:00,
2013-07-14 06:16:00,63.3,58.4,30.43,North,0,0.0,0.0,84,0.00,,---,0.00,VWS V14.01,2013-07-14 10:16:00,
2013-07-14 10:18:00,72.6,67.5,30.43,NW,315,0.0,0.0,84,0.00,,---,0.00,VWS V14.01,2013-07-14 14:18:00,
2013-07-14 10:23:00,73.0,67.5,30.43,NW,315,0.0,0.0,83,0.00,,---,0.00,VWS V14.01,2013-07-14 14:23:00,
2013-07-14 10:28:00,73.2,67.7,30.43,NW,315,0.0,0.0,83,0.00,,---,0.19,VWS V14.01,2013-07-14 14:28:00,
2013-07-14 13:54:00,77.1,68.6,30.41,SSE,158,0.0,0.0,75,0.00,,---,0.00,VWS V14.01,2013-07-14 17:54:00,
2013-07-14 13:59:00,77.1,68.2,30.41,WSW,248,0.0,0.0,74,0.00,,---,0.19,VWS V14.01,2013-07-14 17:59:00,
2013-07-14 14:04:00,77.1,68.2,30.40,WSW,248,0.0,0.0,74,0.00,,---,0.00,VWS V14.01,2013-07-14 18:04:00,
2013-07-14 14:09:00,77.3,68.4,30.41,WSW,248,0.0,0.0,74,0.00,,---,0.00,VWS V14.01,2013-07-14 18:09:00,
2013-07-14 14:14:00,77.3,68.4,30.40,WSW,248,0.0,0.0,74,0.00,,---,0.00,VWS V14.01,2013-07-14 18:14:00,
2013-07-14 14:19:00,77.3,68.4,30.41,WSW,248,0.0,0.0,74,0.00,,---,0.00,VWS V14.01,2013-07-14 18:19:00,
2013-07-14 14:24:00,77.5,68.6,30.40,WSW,248,0.0,0.0,74,0.00,,---,0.00,VWS V14.01,2013-07-14 18:24:00,
2013-07-14 14:29:00,77.5,68.6,30.40,WSW,248,0.0,0.0,74,0.00,,---,0.00,VWS V14.01,2013-07-14 18:29:00,
2013-07-14 14:34:00,77.5,68.6,30.40,South,180,0.0,0.0,74,0.00,,---,0.00,VWS V14.01,2013-07-14 18:34:00,
2013-07-14 14:39:00,77.7,68.8,30.40,WSW,248,0.0,0.0,74,0.00,,---,0.00,VWS V14.01,2013-07-14 18:39:00,
2013-07-14 14:44:00,77.7,68.4,30.40,WSW,248,0.0,0.0,73,0.00,,---,0.00,VWS V14.01,2013-07-14 18:44:00,
2013-07-14 14:49:00,77.7,68.4,30.41,NW,315,0.0,0.0,73,0.00,,---,0.00,VWS V14.01,2013-07-14 18:49:00,
2013-07-14 14:54:00,77.9,68.6,30.41,NW,315,0.0,0.0,73,0.00,,---,0.00,VWS V14.01,2013-07-14 18:54:00,
2013-07-14 14:59:00,78.0,68.7,30.40,NW,315,0.0,0.0,73,0.00,,---,0.19,VWS V14.01,2013-07-14 18:59:00,
2013-07-14 15:04:00,78.2,68.4,30.40,NW,315,0.0,0.0,72,0.00,,---,0.00,VWS V14.01,2013-07-14 19:04:00,
2013-07-14 15:09:00,78.4,68.6,30.40,NW,315,0.0,0.0,72,0.00,,---,0.00,VWS V14.01,2013-07-14 19:09:00,
2013-07-14 15:14:00,78.6,69.2,30.40,South,180,0.0,0.0,73,0.00,,---,0.00,VWS V14.01,2013-07-14 19:14:00,
2013-07-14 15:19:00,78.9,69.1,30.40,South,180,0.0,0.0,72,0.00,,---,0.00,VWS V14.01,2013-07-14 19:19:00,
2013-07-14 15:24:00,79.3,69.5,30.40,SSE,158,0.0,0.0,72,0.00,,---,0.00,VWS V14.01,2013-07-14 19:24:00,
2013-07-14 15:29:00,79.5,69.7,30.40,SSE,158,0.0,0.0,72,0.00,,---,0.00,VWS V14.01,2013-07-14 19:29:00,
2013-07-14 15:34:00,79.5,69.7,30.40,SSE,158,0.0,0.0,72,0.00,,---,0.00,VWS V14.01,2013-07-14 19:34:00,
2013-07-14 15:39:00,79.5,69.7,30.40,SSE,158,0.0,0.0,72,0.00,,---,0.00,VWS V14.01,2013-07-14 19:39:00,
2013-07-14 15:44:00,79.3,69.1,30.40,NW,315,0.0,0.0,71,0.00,,---,0.00,VWS V14.01,2013-07-14 19:44:00,
2013-07-14 15:49:00,79.3,69.1,30.40,NW,315,0.0,0.0,71,0.00,,---,0.00,VWS V14.01,2013-07-14 19:49:00,
2013-07-14 15:54:00,79.1,68.9,30.40,NW,315,0.0,0.0,71,0.00,,---,0.00,VWS V14.01,2013-07-14 19:54:00,
2013-07-14 15:59:00,78.9,68.7,30.40,NW,315,0.0,0.0,71,0.00,,---,0.19,VWS V14.01,2013-07-14 19:59:00,
2013-07-14 16:04:00,78.8,68.6,30.40,NNW,338,0.0,0.0,71,0.00,,---,0.00,VWS V14.01,2013-07-14 20:04:00,
2013-07-14 16:09:00,78.6,68.4,30.40,NW,315,0.0,0.0,71,0.00,,---,0.00,VWS V14.01,2013-07-14 20:09:00,
2013-07-14 16:14:00,78.6,68.4,30.40,NNW,338,0.0,0.0,71,0.00,,---,0.00,VWS V14.01,2013-07-14 20:14:00,
2013-07-14 16:19:00,78.6,68.4,30.39,NNW,338,0.0,0.0,71,0.00,,---,0.00,VWS V14.01,2013-07-14 20:19:00,
2013-07-14 16:24:00,78.4,68.2,30.39,NW,315,0.0,0.0,71,0.00,,---,0.00,VWS V14.01,2013-07-14 20:24:00,
2013-07-14 16:29:00,78.4,68.2,30.39,NW,315,0.0,0.0,71,0.00,,---,0.00,VWS V14.01,2013-07-14 20:29:00,
2013-07-14 16:34:00,78.4,68.2,30.39,NW,315,0.0,0.0,71,0.00,,---,0.00,VWS V14.01,2013-07-14 20:34:00,
2013-07-14 16:39:00,78.4,68.2,30.39,NW,315,0.0,0.0,71,0.00,,---,0.00,VWS V14.01,2013-07-14 20:39:00,
2013-07-14 16:44:00,78.4,68.6,30.39,NW,315,0.0,0.0,72,0.00,,---,0.00,VWS V14.01,2013-07-14 20:44:00,
2013-07-14 16:49:00,78.6,68.4,30.39,WNW,292,0.0,0.0,71,0.00,,---,0.00,VWS V14.01,2013-07-14 20:49:00,
2013-07-14 16:54:00,78.6,68.4,30.39,WNW,292,0.0,0.0,71,0.00,,---,0.00,VWS V14.01,2013-07-14 20:54:00,
2013-07-14 16:59:00,78.9,69.1,30.39,SE,135,0.0,0.0,72,0.00,,---,0.19,VWS V14.01,2013-07-14 20:59:00,
2013-07-14 17:04:00,79.3,69.5,30.39,West,270,0.0,0.0,72,0.00,,---,0.00,VWS V14.01,2013-07-14 21:04:00,
2013-07-14 17:09:00,79.8,70.0,30.38,NNW,338,0.0,0.0,72,0.00,,---,0.00,VWS V14.01,2013-07-14 21:09:00,
2013-07-14 17:14:00,80.2,69.9,30.38,NNW,338,0.0,0.0,71,0.00,,---,0.00,VWS V14.01,2013-07-14 21:14:00,
2013-07-14 17:19:00,80.2,69.5,30.39,NW,315,0.0,0.0,70,0.00,,---,0.00,VWS V14.01,2013-07-14 21:19:00,
2013-07-14 17:24:00,80.4,69.3,30.38,WNW,292,0.0,0.0,69,0.00,,---,0.00,VWS V14.01,2013-07-14 21:24:00,
2013-07-14 17:29:00,80.4,69.3,30.38,ENE,68,0.0,0.0,69,0.00,,---,0.00,VWS V14.01,2013-07-14 21:29:00,
2013-07-14 17:34:00,80.4,69.3,30.38,NNW,338,0.0,0.0,69,0.00,,---,0.00,VWS V14.01,2013-07-14 21:34:00,
2013-07-14 17:39:00,80.4,69.3,30.38,NW,315,0.0,0.0,69,0.00,,---,0.00,VWS V14.01,2013-07-14 21:39:00,
2013-07-14 17:44:00,80.6,69.5,30.38,NNE,22,0.0,0.0,69,0.00,,---,0.00,VWS V14.01,2013-07-14 21:44:00,
2013-07-14 17:49:00,80.7,69.6,30.38,ESE,112,0.0,0.0,69,0.00,,---,0.00,VWS V14.01,2013-07-14 21:49:00,
2013-07-14 17:54:00,80.9,70.2,30.38,SE,135,0.0,0.0,70,0.00,,---,0.00,VWS V14.01,2013-07-14 21:54:00,
2013-07-14 17:59:00,80.9,69.4,30.38,WNW,292,0.0,0.0,68,0.00,,---,0.19,VWS V14.01,2013-07-14 21:59:00,
2013-07-14 18:04:00,80.7,69.2,30.37,WNW,292,0.0,0.0,68,0.00,,---,0.00,VWS V14.01,2013-07-14 22:04:00,
2013-07-14 18:09:00,80.7,69.6,30.37,WNW,292,0.0,0.0,69,0.00,,---,0.00,VWS V14.01,2013-07-14 22:09:00,
2013-07-14 18:14:00,80.6,69.5,30.37,WNW,292,0.0,0.0,69,0.00,,---,0.00,VWS V14.01,2013-07-14 22:14:00,
2013-07-14 18:19:00,80.6,69.5,30.38,WNW,292,0.0,0.0,69,0.00,,---,0.00,VWS V14.01,2013-07-14 22:19:00,
2013-07-14 18:24:00,80.4,68.9,30.37,NW,315,0.0,0.0,68,0.00,,---,0.00,VWS V14.01,2013-07-14 22:24:00,
2013-07-14 18:29:00,80.4,68.9,30.37,NW,315,0.0,0.0,68,0.00,,---,0.00,VWS V14.01,2013-07-14 22:29:00,
2013-07-14 18:34:00,80.2,68.3,30.38,WNW,292,0.0,0.0,67,0.00,,---,0.00,VWS V14.01,2013-07-14 22:34:00,
2013-07-14 18:39:00,80.2,68.3,30.38,WNW,292,0.0,0.0,67,0.00,,---,0.00,VWS V14.01,2013-07-14 22:39:00,
2013-07-14 18:44:00,79.8,67.9,30.38,NW,315,0.0,0.0,67,0.00,,---,0.00,VWS V14.01,2013-07-14 22:44:00,
2013-07-14 18:49:00,79.7,68.2,30.38,SW,225,0.0,0.0,68,0.00,,---,0.00,VWS V14.01,2013-07-14 22:49:00,
2013-07-14 18:54:00,79.5,68.0,30.38,West,270,0.0,0.0,68,0.00,,---,0.00,VWS V14.01,2013-07-14 22:54:00,
2013-07-14 18:59:00,79.5,68.0,30.37,NNW,338,0.0,0.0,68,0.00,,---,0.00,VWS V14.01,2013-07-14 22:59:00,
2013-07-14 19:04:00,79.3,67.8,30.37,NW,315,0.0,0.0,68,0.00,,---,0.00,VWS V14.01,2013-07-14 23:04:00,
2013-07-14 19:09:00,79.1,68.1,30.37,NW,315,0.0,0.0,69,0.00,,---,0.00,VWS V14.01,2013-07-14 23:09:00,
2013-07-14 19:14:00,78.9,67.9,30.37,NW,315,0.0,0.0,69,0.00,,---,0.00,VWS V14.01,2013-07-14 23:14:00,
2013-07-14 19:19:00,78.9,68.3,30.37,NW,315,0.0,0.0,70,0.00,,---,0.00,VWS V14.01,2013-07-14 23:19:00,
2013-07-14 19:24:00,78.6,68.0,30.38,NW,315,0.0,0.0,70,0.00,,---,0.00,VWS V14.01,2013-07-14 23:24:00,
2013-07-14 19:29:00,78.6,68.0,30.38,NW,315,0.0,0.0,70,0.00,,---,0.00,VWS V14.01,2013-07-14 23:29:00,
2013-07-14 19:34:00,78.6,68.0,30.37,NW,315,0.0,0.0,70,0.00,,---,0.00,VWS V14.01,2013-07-14 23:34:00,
2013-07-14 19:39:00,78.6,68.0,30.37,NW,315,0.0,0.0,70,0.00,,---,0.00,VWS V14.01,2013-07-14 23:39:00,
2013-07-14 19:44:00,78.4,67.8,30.37,NW,315,0.0,0.0,70,0.00,,---,0.00,VWS V14.01,2013-07-14 23:44:00,
2013-07-14 19:49:00,78.2,68.0,30.37,NW,315,0.0,0.0,71,0.00,,---,0.00,VWS V14.01,2013-07-14 23:49:00,
2013-07-14 19:54:00,78.0,67.8,30.37,NW,315,0.0,0.0,71,0.00,,---,0.00,VWS V14.01,2013-07-14 23:54:00,
2013-07-14 19:59:00,78.0,67.8,30.37,NW,315,0.0,0.0,71,0.00,,---,0.00,VWS V14.01,2013-07-14 23:59:00,
2013-07-14 20:04:00,77.9,67.8,30.37,NW,315,0.0,0.0,71,0.00,,---,0.00,VWS V14.01,2013-07-15 00:04:00,
2013-07-14 20:09:00,77.7,68.0,30.37,NW,315,0.0,0.0,72,0.00,,---,0.00,VWS V14.01,2013-07-15 00:09:00,
2013-07-14 20:14:00,77.5,67.8,30.37,NW,315,0.0,0.0,72,0.00,,---,0.00,VWS V14.01,2013-07-15 00:14:00,
2013-07-14 20:19:00,77.5,67.8,30.37,NW,315,0.0,0.0,72,0.00,,---,0.00,VWS V14.01,2013-07-15 00:19:00,
2013-07-14 20:24:00,77.3,67.6,30.38,NW,315,0.0,0.0,72,0.00,,---,0.00,VWS V14.01,2013-07-15 00:24:00,
2013-07-14 20:29:00,77.1,67.4,30.37,NW,315,0.0,0.0,72,0.00,,---,0.00,VWS V14.01,2013-07-15 00:29:00,
2013-07-14 20:34:00,77.0,67.7,30.37,NW,315,0.0,0.0,73,0.00,,---,0.00,VWS V14.01,2013-07-15 00:34:00,
2013-07-14 20:39:00,76.8,67.5,30.37,NW,315,0.0,0.0,73,0.00,,---,0.00,VWS V14.01,2013-07-15 00:39:00,
2013-07-14 20:44:00,76.6,67.3,30.37,NW,315,0.0,0.0,73,0.00,,---,0.00,VWS V14.01,2013-07-15 00:44:00,
2013-07-14 20:49:00,76.4,67.1,30.37,NW,315,0.0,0.0,73,0.00,,---,0.00,VWS V14.01,2013-07-15 00:49:00,
2013-07-14 20:54:00,76.1,66.8,30.37,NW,315,0.0,0.0,73,0.00,,---,0.00,VWS V14.01,2013-07-15 00:54:00,
2013-07-14 20:59:00,75.9,66.6,30.37,NW,315,0.0,0.0,73,0.00,,---,0.19,VWS V14.01,2013-07-15 00:59:00,
2013-07-14 21:04:00,75.7,66.4,30.38,NW,315,0.0,0.0,73,0.00,,---,0.00,VWS V14.01,2013-07-15 01:04:00,
2013-07-14 21:09:00,75.3,66.4,30.38,NW,315,0.0,0.0,74,0.00,,---,0.00,VWS V14.01,2013-07-15 01:09:00,
2013-07-14 21:14:00,75.0,66.2,30.38,NW,315,0.0,0.0,74,0.00,,---,0.00,VWS V14.01,2013-07-15 01:14:00,
2013-07-14 21:19:00,75.0,66.2,30.38,NW,315,0.0,0.0,74,0.00,,---,0.00,VWS V14.01,2013-07-15 01:19:00,
2013-07-14 21:24:00,74.8,66.3,30.38,NW,315,0.0,0.0,75,0.00,,---,0.00,VWS V14.01,2013-07-15 01:24:00,
2013-07-14 21:29:00,74.4,66.0,30.38,NW,315,0.0,0.0,75,0.00,,---,0.00,VWS V14.01,2013-07-15 01:29:00,
2013-07-14 21:34:00,74.3,65.9,30.39,NW,315,0.0,0.0,75,0.00,,---,0.00,VWS V14.01,2013-07-15 01:34:00,
2013-07-14 21:39:00,73.9,65.5,30.39,NW,315,0.0,0.0,75,0.00,,---,0.00,VWS V14.01,2013-07-15 01:39:00,
2013-07-14 21:44:00,73.9,65.5,30.38,NW,315,0.0,0.0,75,0.00,,---,0.00,VWS V14.01,2013-07-15 01:44:00,
2013-07-14 21:49:00,73.5,65.1,30.38,NW,315,0.0,0.0,75,0.00,,---,0.00,VWS V14.01,2013-07-15 01:49:00,
2013-07-14 21:54:00,73.4,65.0,30.38,NW,315,0.0,0.0,75,0.00,,---,0.00,VWS V14.01,2013-07-15 01:54:00,
2013-07-14 21:59:00,73.2,65.2,30.38,NW,315,0.0,0.0,76,0.00,,---,0.00,VWS V14.01,2013-07-15 01:59:00,
2013-07-14 22:04:00,73.0,65.0,30.38,NW,315,0.0,0.0,76,0.00,,---,0.00,VWS V14.01,2013-07-15 02:04:00,
2013-07-14 22:09:00,72.8,64.8,30.38,NW,315,0.0,0.0,76,0.00,,---,0.00,VWS V14.01,2013-07-15 02:09:00,
2013-07-14 22:14:00,72.6,65.0,30.38,NW,315,0.0,0.0,77,0.00,,---,0.00,VWS V14.01,2013-07-15 02:14:00,
2013-07-14 22:19:00,72.3,64.3,30.38,NW,315,0.0,0.0,76,0.00,,---,0.00,VWS V14.01,2013-07-15 02:19:00,
2013-07-14 22:24:00,72.1,64.5,30.38,NW,315,0.0,0.0,77,0.00,,---,0.00,VWS V14.01,2013-07-15 02:24:00,
2013-07-14 22:29:00,72.1,64.5,30.38,NW,315,0.0,0.0,77,0.00,,---,0.00,VWS V14.01,2013-07-15 02:29:00,
2013-07-14 22:34:00,71.9,64.3,30.38,NW,315,0.0,0.0,77,0.00,,---,0.00,VWS V14.01,2013-07-15 02:34:00,
2013-07-14 22:39:00,71.7,64.1,30.38,NW,315,0.0,0.0,77,0.00,,---,0.00,VWS V14.01,2013-07-15 02:39:00,
2013-07-14 22:44:00,71.4,63.8,30.38,NW,315,0.0,0.0,77,0.00,,---,0.00,VWS V14.01,2013-07-15 02:44:00,
2013-07-14 22:49:00,71.4,64.2,30.38,NW,315,0.0,0.0,78,0.00,,---,0.00,VWS V14.01,2013-07-15 02:49:00,
2013-07-14 22:54:00,71.2,64.0,30.38,NW,315,0.0,0.0,78,0.00,,---,0.00,VWS V14.01,2013-07-15 02:54:00,
2013-07-14 22:59:00,70.8,63.6,30.38,NW,315,0.0,0.0,78,0.00,,---,0.19,VWS V14.01,2013-07-15 02:59:00,
2013-07-14 23:04:00,70.8,63.6,30.38,NW,315,0.0,0.0,78,0.00,,---,0.00,VWS V14.01,2013-07-15 03:04:00,
2013-07-14 23:09:00,70.7,63.5,30.38,NW,315,0.0,0.0,78,0.00,,---,0.00,VWS V14.01,2013-07-15 03:09:00,
2013-07-14 23:14:00,70.5,63.3,30.38,NW,315,0.0,0.0,78,0.00,,---,0.00,VWS V14.01,2013-07-15 03:14:00,
2013-07-14 23:19:00,70.3,63.1,30.38,NW,315,0.0,0.0,78,0.00,,---,0.00,VWS V14.01,2013-07-15 03:19:00,
2013-07-14 23:24:00,70.3,63.1,30.38,NW,315,0.0,0.0,78,0.00,,---,0.00,VWS V14.01,2013-07-15 03:24:00,
2013-07-14 23:29:00,69.9,62.7,30.38,NW,315,0.0,0.0,78,0.00,,---,0.00,VWS V14.01,2013-07-15 03:29:00,
2013-07-14 23:34:00,69.9,63.1,30.38,NW,315,0.0,0.0,79,0.00,,---,0.00,VWS V14.01,2013-07-15 03:34:00,
2013-07-14 23:39:00,69.8,63.0,30.38,NW,315,0.0,0.0,79,0.00,,---,0.00,VWS V14.01,2013-07-15 03:39:00,
2013-07-14 23:44:00,69.6,62.8,30.38,NW,315,0.0,0.0,79,0.00,,---,0.00,VWS V14.01,2013-07-15 03:44:00,
2013-07-14 23:49:00,69.6,62.8,30.38,NW,315,0.0,0.0,79,0.00,,---,0.00,VWS V14.01,2013-07-15 03:49:00,
2013-07-14 23:54:00,69.4,62.6,30.38,NW,315,0.0,0.0,79,0.00,,---,0.00,VWS V14.01,2013-07-15 03:54:00,
2013-07-14 23:58:00,69.2,62.8,30.38,NW,315,0.0,0.0,80,0.00,,---,0.19,VWS V14.01,2013-07-15 03:58:00,